Regional Weather Roundup
Issued by NWS

Home | Current Version | Previous Version | Text Only | Print | Product List | Glossary On
Versions: 1 2 3 4 5 6 7 8 9 10 11 12 13 14 15 16 17 18 19 20 21 22 23 24 25 26 27 28 29 30 31 32 33 34 35 36 37 38 39 40 41 42 43 44 45 46 47 48 49 50
000
ASUS43 KIND 212009
RWRIN

WEATHER ROUNDUP FOR INDIANA
NATIONAL WEATHER SERVICE INDIANAPOLIS IN
400 PM EDT TUE OCT 21 2014

NOTE: "FAIR" INDICATES FEW OR NO CLOUDS BELOW 12,000 FEET WITH NO
SIGNIFICANT WEATHER AND/OR OBSTRUCTIONS TO VISIBILITY.

* - STATION DOES NOT REPORT WEATHER SUCH AS PRECIPITATION OR FOG.

+ - STATION NOT QUALITY CONTROLLED BY THE NATIONAL WEATHER SERVICE.
    USE DATA WITH CAUTION...ESPECIALLY DEWPOINT AND RELATIVE
    HUMIDITY OBSERVATIONS.

INZ001>003-010>013-019-020-212100-
NORTHWEST INDIANA

CITY           SKY/WX    TMP DP  RH WIND       PRES   REMARKS
GARY /AIRPORT/ CLOUDY    52  43  71 N12G23    30.17S
KNOX *+        PTSUNNY   53  42  66 N16G22    30.13R
LA PORTE +     CLOUDY    52  44  75 N18       30.15R
MICHIGAN CITY+ CLOUDY    50  37  62 N13G20    30.16R
MONTICELLO +   CLOUDY    54  43  67 N13       30.12R
RENSSELAER +   CLOUDY    54  45  71 N15G22    30.14S
VALPARAISO     CLOUDY    52  40  63 N14G20    30.15R

$$

LMZ046-743>745-212100-
SOUTHERN LAKE MICHIGAN

STATION/POSITION TIME  TEMP WIND        PRES
                       AIR  DIR/SP/G
                 (UTC) (F)  (DEG/KT/KT) (MB)
MICHIGAN CITY    2000   50  360/ 22/ 25   N/A

$$

INZ004-005-014>016-021>024-212100-
NORTH CENTRAL INDIANA

CITY           SKY/WX    TMP DP  RH WIND       PRES   REMARKS
ELKHART        CLOUDY    50  39  66 N9G16     30.14R
GOSHEN         CLOUDY    51  41  68 N16       30.12R
LOGANSPORT +   CLOUDY    54  41  62 N7        30.12R
PERU/GRISSOM   CLOUDY    54  46  74 N9        30.10R
ROCHESTER +    PTSUNNY   57  41  54 N13       30.11R
SOUTH BEND     CLOUDY    51  40  65 N15       30.14R
WARSAW +       CLOUDY    50  41  71 N9        30.11R

$$

INZ006>009-017-018-025>027-212100-
NORTHEAST INDIANA

CITY           SKY/WX    TMP DP  RH WIND       PRES   REMARKS
ANGOLA *+      CLOUDY    48  30  49 VRB7      30.11R
AUBURN +       CLOUDY    50  37  62 N9G16     30.10S
FORT WAYNE     PTSUNNY   52  42  69 N12       30.10R
HUNTINGTON +   CLOUDY    52  43  70 N12       30.10R

$$

INZ028-029-035-036-043>045-051>053-212100-
WEST CENTRAL INDIANA

CITY           SKY/WX    TMP DP  RH WIND       PRES   REMARKS
GREENCASTLE +  MOSUNNY   55  41  58 N10G17    30.11S
LAFAYETTE      CLOUDY    52  43  71 N8        30.12S
TERRE HAUTE    PTSUNNY   58  39  49 N12       30.11S

$$

INZ030>032-037>040-046>048-054>057-064-065-212100-
CENTRAL INDIANA

CITY           SKY/WX    TMP DP  RH WIND       PRES   REMARKS
ANDERSON       PTSUNNY   55  39  54 N12       30.09R
CP ATTERBURY + CLOUDY    55  41  58 NW10      30.09S
COLUMBUS       CLOUDY    55  43  62 NW12      30.08S
FRANKFORT +    CLOUDY    55  45  67 NW10      30.12S
INDIANAPOLIS   PTSUNNY   55  39  54 NW16      30.09R
-EAGLE CREEK   CLOUDY    55  41  59 N8        30.09R
KOKOMO *+      CLOUDY    54  39  58 N12       30.11R
MARION +       PTSUNNY   53  41  62 N9G16     30.10R
MT COMFORT *+  PTSUNNY   55  34  44 N12       30.09R
SHELBYVILLE    PTSUNNY   57  41  55 N13       30.08R
ZIONSVILLE +   PTSUNNY   56  38  50 N10G20    30.10R

$$

INZ033-034-041-042-049-050-058-059-212100-
EAST CENTRAL INDIANA

CITY           SKY/WX    TMP DP  RH WIND       PRES   REMARKS
MUNCIE         PTSUNNY   55  42  61 N14       30.09R

$$

INZ060-061-067>069-081>083-085>088-212100-
SOUTHWEST INDIANA

CITY           SKY/WX    TMP DP  RH WIND       PRES   REMARKS
EVANSVILLE     PTSUNNY   63  44  50 N12G18    30.09R
HUNTINGBURG *+ PTSUNNY   61  43  51 N10       30.09S
WASHINGTON +   PTSUNNY   60  42  52 N14G21    30.10R

$$

INZ062-063-066-070>080-084-089>092-212100-
SOUTH CENTRAL AND SOUTHEAST INDIANA

CITY           SKY/WX    TMP DP  RH WIND       PRES   REMARKS
BLOOMINGTON    CLOUDY    57  41  55 N8        30.09S
SEYMOUR +      CLOUDY    57  41  54 N12       30.08

$$




USA.gov is the U.S. government's official web portal to all federal, state and local government web resources and services.